Location: Carson
(33.8314°N, 118.2820°W)
Time: 12:55:02
(UTC+00:00)

Lacrosse 5 - Pass Details

Date: 23 November 2020
Orbit: 713 x 726 km, 57.0° (Epoch: 18 January)

Event Time Altitude Azimuth Distance (km) Brightness Sun altitude
Rises 12:49:16 0° 200° (SSW) 3,097 5.1 -21.4°
Reaches altitude 10° 12:51:44 10° 194° (SSW) 2,180 4.3 -20.9°
Maximum altitude 12:56:27 43° 123° (ESE) 998 3.0 -19.9°
Drops below altitude 10° 13:01:12 10° 53° (NE) 2,189 4.9 -19.0°
Sets 13:03:40 0° 47° (NE) 3,112 5.6 -18.5°
